Flint, MI

9:53 AM EST on February 25, 2017 (GMT -0500)
Bishop International

Weather History for KFNT - December, 2010

Change the Weather History Date:

Wednesday, December 15, 2010

  Actual Average Record
Temperature  
Mean Temperature 14 °F 27 °F  
Max Temperature 24 °F 34 °F 60 °F (1971)
Min Temperature 3 °F 21 °F -3 °F (1989)
Degree Days  
Heating Degree Days 51 38  
Month to date heating degree days 620 527  
Since 1 July heating degree days 1909 2008  
Cooling Degree Days 0 0  
Month to date cooling degree days 0 0  
Year to date cooling degree days 861 531  
Moisture  
Dew Point 9 °F    
Average Humidity 76    
Maximum Humidity 91    
Minimum Humidity 60    
Precipitation  
Precipitation 0.00 in 0.06 in 1.74 in (1971)
Month to date precipitation 0.96 0.99  
Year to date precipitation 25.06 30.44  
Snow  
Snow 0.00 in 0.40 in 4.60 in (2005)
Month to date snowfall 10.1 5.2  
Since 1 July snowfall 10.3 8.1  
Snow Depth 5.00 in    
Sea Level Pressure  
Sea Level Pressure 30.00 in    
Wind  
Wind Speed 9 mph (West)    
Max Wind Speed 20 mph    
Max Gust Speed 22 mph    
Visibility 10 miles    
Events      
T = Trace of Precipitation, MM = Missing Value Source: NWS Daily Summary

Daily Weather History Graph

Daily Weather History Graph

Search for Another Location

Airport or City:

Trip Planner

Search our weather history database for the weather conditions in past years. The results will help you decide how hot, cold, wet, or windy it might be!

Date:

Astronomy

Dec. 15, 2010 Rise Set
Actual Time 7:59 AM EST 5:01 PM EST
Civil Twilight 7:26 AM EST 5:33 PM EST
Nautical Twilight 6:51 AM EST 6:09 PM EST
Astronomical Twilight 6:16 AM EST 6:43 PM EST
Moon 1:11 PM EST (12/15) 2:10 AM EST (12/15)
Length of Visible Light 10h 06m
Length of Day
9h 01m
Waxing Gibbous, 70% of the Moon is Illuminated
Dec 15
Waxing Gibbous
Dec 21
Full
Dec 27
Last Quarter
Jan 4
New
Jan 12
First Quarter

Hourly Weather History & Observations

Time (EST) Temp. Windchill Dew Point Humidity Pressure Visibility Wind Dir Wind Speed Gust Speed Precip Events Conditions
12:53 AM 12.9 °F 2.6 °F 8.1 °F 81% 30.05 in 10.0 mi West 6.9 mph - N/A   Overcast
1:53 AM 10.9 °F -0.8 °F 7.0 °F 84% 30.05 in 10.0 mi West 8.1 mph - N/A   Mostly Cloudy
2:06 AM 8.6 °F -2.6 °F 6.8 °F 92% 30.00 in 10.0 mi West 6.9 mph - N/A   Scattered Clouds
2:53 AM 8.1 °F -6.2 °F 5.0 °F 87% 30.06 in 10.0 mi West 10.4 mph - N/A   Clear
3:53 AM 9.0 °F -3.2 °F 6.1 °F 88% 30.06 in 10.0 mi West 8.1 mph - N/A   Clear
4:53 AM 10.9 °F -2.6 °F 7.0 °F 84% 30.06 in 10.0 mi West 10.4 mph - N/A   Clear
5:53 AM 14.0 °F -0.8 °F 9.0 °F 80% 30.06 in 10.0 mi WNW 13.8 mph - N/A   Clear
6:53 AM 14.0 °F 0.5 °F 9.0 °F 80% 30.06 in 10.0 mi West 11.5 mph - N/A   Clear
7:53 AM 12.0 °F 0.5 °F 7.0 °F 80% 30.06 in 10.0 mi WNW 8.1 mph - N/A   Clear
8:53 AM 12.0 °F -0.4 °F 8.1 °F 84% 30.07 in 10.0 mi West 9.2 mph - N/A   Clear
9:53 AM 18.0 °F 4.8 °F 10.9 °F 74% 30.07 in 10.0 mi West 12.7 mph - N/A   Clear
10:53 AM 21.0 °F 8.6 °F 12.0 °F 68% 30.06 in 10.0 mi WNW 12.7 mph - N/A   Clear
11:53 AM 21.9 °F 9.2 °F 12.9 °F 68% 30.04 in 10.0 mi West 13.8 mph - N/A   Clear
12:53 PM 23.0 °F 9.2 °F 12.9 °F 65% 30.03 in 10.0 mi West 17.3 mph - N/A   Mostly Cloudy
1:53 PM 24.1 °F 11.0 °F 12.9 °F 62% 30.02 in 10.0 mi West 16.1 mph - N/A   Clear
2:28 PM 24.8 °F 11.9 °F 12.2 °F 59% 29.98 in 10.0 mi WNW 16.1 mph 20.7 mph N/A   Mostly Cloudy
2:53 PM 23.0 °F 11.1 °F 12.9 °F 65% 30.02 in 10.0 mi West 12.7 mph - N/A   Overcast
3:53 PM 21.9 °F 9.8 °F 12.0 °F 66% 30.01 in 10.0 mi West 12.7 mph - N/A   Overcast
4:15 PM 21.2 °F 8.9 °F 12.2 °F 68% 29.96 in 10.0 mi West 12.7 mph - N/A   Scattered Clouds
4:53 PM 21.9 °F 11.7 °F 12.9 °F 68% 30.01 in 10.0 mi West 9.2 mph - N/A   Scattered Clouds
5:00 PM 21.2 °F 11.7 °F 12.2 °F 68% 29.97 in 10.0 mi West 8.1 mph - N/A   Overcast
5:18 PM 21.2 °F 13.6 °F 12.2 °F 68% 29.96 in 10.0 mi West 5.8 mph - N/A   Overcast
5:53 PM 19.0 °F 11.1 °F 10.9 °F 71% 30.00 in 10.0 mi WSW 5.8 mph - N/A   Scattered Clouds
6:53 PM 12.0 °F - 7.0 °F 80% 30.00 in 10.0 mi Calm Calm - N/A   Clear
7:53 PM 14.0 °F 6.5 °F 9.0 °F 80% 29.99 in 10.0 mi SW 4.6 mph - N/A   Scattered Clouds
8:53 PM 7.0 °F 0.1 °F 5.0 °F 92% 29.98 in 10.0 mi SW 3.5 mph - N/A   Clear
9:53 PM 5.0 °F - 1.0 °F 84% 29.96 in 10.0 mi Calm Calm - N/A   Clear
10:46 PM 6.8 °F -3.5 °F 3.2 °F 85% 29.90 in 10.0 mi WSW 5.8 mph - N/A   Mostly Cloudy
10:53 PM 8.1 °F -2.0 °F 3.9 °F 83% 29.95 in 10.0 mi WSW 5.8 mph - N/A   Mostly Cloudy
11:07 PM 10.4 °F 2.2 °F 6.8 °F 85% 29.90 in 10.0 mi WSW 4.6 mph - N/A   Partly Cloudy
11:42 PM 6.8 °F -0.1 °F 3.2 °F 85% 29.89 in 10.0 mi WSW 3.5 mph - N/A   Mostly Cloudy
11:53 PM 10.4 °F 4.0 °F 5.0 °F 79% 29.89 in 10.0 mi WSW 3.5 mph - N/A   Overcast